SCP
0 0 0 0 0 0 0 -0 -0 -0 0 -0 0 -0 -0 0 0 0 -0 0 -0 -0
0 0 0 0 0 0 -0 -0 -0 0 0 -0 -0 -0 -0 0 -0 0 0 0 0 0
0 0 0 -0 -0 -0 -0 -0 -0 0 0 -0 -0 -0 -0 -0 -0 0 -0 0 0 0
0 0 -0 -0 0 -0 -0 -0 -0 0 0 -0 -0 -0 -0 -0 0 0 -0 0 0 0
0 0 -0 -0 0 -0 0 -0 0 0 0 -0 -0 -0 -0 -0 -0 -0 -0 -0 0 0
0 0 0 -0 -0 0 -0 0 0 0 0 0 -0 -0 -0 0 0 0 0 0 0 0
0 0 0 0 0 0 0 0 0 -0 0 -0 -0 -0 -0 0 0 0 0 0 0 0
0 0 0 0 0 0 0 0 0 0 0 -0 -0 0 0 0 0 0 0 0 0 0
0 0 0 1 0 0 0 0 0 0 0 0 0 0 -0 0 0 0 0 0 0 0
0 0 0 0 1 1 0 0 0 0 0 0 -0 0 0 0 0 0 0 0 0 0
0 0 0 0 1 1 1 1 0 0 0 0 0 0 0 0 0 0 0 0 0 0
1 0 -0 -0 0 1 1 1 1 1 0 0 0 0 0 0 0 0 0 0 0 0
2 -0 -0 -0 0 1 1 1 1 1 1 0 0 0 0 0 0 0 0 0 0 0
2 1 0 0 0 0 1 1 1 1 1 1 1 0 0 0 0 0 0 0 0 0
Wind_Speed_500mb
29 25 25 33 35 42 45 43 42 36 32 31 27 21 37 25 21 15 25 31 22 10
32 27 29 23 36 39 43 41 42 34 38 31 33 32 30 24 20 17 18 14 15 15
33 28 30 24 33 46 48 42 44 38 33 34 37 31 26 22 18 15 13 9 9 10
36 31 32 37 24 51 50 38 49 42 32 39 39 37 30 28 25 24 22 19 17 12
32 30 33 38 38 50 33 36 48 42 33 41 41 36 34 33 31 20 21 19 18 21
38 35 33 36 46 52 40 47 51 46 37 44 45 42 37 35 34 33 31 25 27 26
45 43 37 28 50 61 51 46 49 54 49 49 45 43 40 37 34 35 33 35 30 27
44 45 48 37 38 64 57 51 52 46 51 47 43 47 48 44 38 32 31 29 32 29
40 45 51 53 47 49 57 61 53 51 50 48 54 56 48 42 34 33 38 35 34 35
51 51 54 58 58 54 57 57 53 53 57 56 52 46 45 42 41 43 43 38 36 37
63 60 60 57 67 64 64 63 58 54 53 50 50 50 50 47 44 50 48 46 43 39
69 66 66 68 68 70 69 70 66 60 56 54 48 49 49 51 49 49 49 45 37 34
70 71 72 71 74 73 72 71 67 62 59 54 53 50 47 48 50 42 37 34 29 20
71 72 69 68 68 73 75 71 69 63 57 56 56 53 45 47 48 43 37 32 30 26
Wind_Direction_500mb
233 243 232 209 211 202 203 201 195 195 198 200 202 192 183 196 186 178 179 177 181 208
232 244 216 216 192 203 194 195 206 210 211 199 200 195 195 205 210 198 184 192 198 188
229 236 214 197 201 194 198 199 208 206 202 198 198 197 195 199 197 206 185 205 259 239
224 225 220 213 198 196 200 223 205 203 204 200 200 194 200 212 222 207 199 216 268 277
217 213 218 212 197 188 201 194 203 207 203 198 206 204 202 217 227 245 235 227 239 258
220 217 216 219 199 192 204 197 207 221 206 204 199 209 211 212 221 236 242 243 246 256
221 218 219 214 208 200 208 209 213 215 216 207 205 213 219 224 231 235 240 247 258 267
222 221 217 206 207 208 210 222 224 218 215 213 213 218 222 228 230 235 236 240 247 258
222 224 216 215 210 210 213 220 228 227 227 220 222 223 223 229 228 243 253 249 249 252
218 227 225 215 216 220 218 221 224 227 226 224 222 224 222 225 225 237 251 254 255 263
223 224 228 224 218 217 220 225 227 226 222 222 221 224 222 227 229 238 244 251 261 263
232 230 230 230 225 223 220 222 226 226 222 219 223 226 225 226 231 240 245 249 255 257
230 234 234 234 231 227 227 226 224 226 227 226 227 229 229 230 232 238 233 235 235 231
243 241 239 237 236 232 229 230 227 229 230 230 231 231 231 232 235 237 224 233 225 228
Wind_Speed_850mb
29 25 25 33 35 42 45 43 42 36 32 31 27 21 37 25 21 15 25 31 22 10
32 27 29 23 36 39 43 41 42 34 38 31 33 32 30 24 20 17 18 14 15 15
33 28 30 24 33 46 48 42 44 38 33 34 37 31 26 22 18 15 13 9 9 10
36 31 32 37 24 51 50 38 49 42 32 39 39 37 30 28 25 24 22 19 17 12
32 30 33 38 38 50 33 36 48 42 33 41 41 36 34 33 31 20 21 19 18 21
38 35 33 36 46 52 40 47 51 46 37 44 45 42 37 35 34 33 31 25 27 26
45 43 37 28 50 61 51 46 49 54 49 49 45 43 40 37 34 35 33 35 30 27
44 45 48 37 38 64 57 51 52 46 51 47 43 47 48 44 38 32 31 29 32 29
40 45 51 53 47 49 57 61 53 51 50 48 54 56 48 42 34 33 38 35 34 35
51 51 54 58 58 54 57 57 53 53 57 56 52 46 45 42 41 43 43 38 36 37
63 60 60 57 67 64 64 63 58 54 53 50 50 50 50 47 44 50 48 46 43 39
69 66 66 68 68 70 69 70 66 60 56 54 48 49 49 51 49 49 49 45 37 34
70 71 72 71 74 73 72 71 67 62 59 54 53 50 47 48 50 42 37 34 29 20
71 72 69 68 68 73 75 71 69 63 57 56 56 53 45 47 48 43 37 32 30 26
Wind_Direction_850mb
233 243 232 209 211 202 203 201 195 195 198 200 202 192 183 196 186 178 179 177 181 208
232 244 216 216 192 203 194 195 206 210 211 199 200 195 195 205 210 198 184 192 198 188
229 236 214 197 201 194 198 199 208 206 202 198 198 197 195 199 197 206 185 205 259 239
224 225 220 213 198 196 200 223 205 203 204 200 200 194 200 212 222 207 199 216 268 277
217 213 218 212 197 188 201 194 203 207 203 198 206 204 202 217 227 245 235 227 239 258
220 217 216 219 199 192 204 197 207 221 206 204 199 209 211 212 221 236 242 243 246 256
221 218 219 214 208 200 208 209 213 215 216 207 205 213 219 224 231 235 240 247 258 267
222 221 217 206 207 208 210 222 224 218 215 213 213 218 222 228 230 235 236 240 247 258
222 224 216 215 210 210 213 220 228 227 227 220 222 223 223 229 228 243 253 249 249 252
218 227 225 215 216 220 218 221 224 227 226 224 222 224 222 225 225 237 251 254 255 263
223 224 228 224 218 217 220 225 227 226 222 222 221 224 222 227 229 238 244 251 261 263
232 230 230 230 225 223 220 222 226 226 222 219 223 226 225 226 231 240 245 249 255 257
230 234 234 234 231 227 227 226 224 226 227 226 227 229 229 230 232 238 233 235 235 231
243 241 239 237 236 232 229 230 227 229 230 230 231 231 231 232 235 237 224 233 225 228